Theta_e
327 316 315 314 301 300 298 308 319 319 319 327 328 326 323 322 318 307 330 341 351 353 357 357 362 362 362 361 361 360 361 361 361 362 361 360 358 355 355 356 355 352 351 352 352 353 353 353 353
322 313 309 303 296 291 295 306 313 317 323 327 328 326 324 324 331 331 333 347 351 354 357 353 362 362 363 361 361 361 360 361 361 361 359 358 357 355 353 354 354 352 353 354 355 355 354 354 354
316 311 301 297 291 292 294 304 314 320 326 325 325 329 327 326 334 334 339 350 353 353 356 353 362 361 363 362 362 361 361 360 360 359 358 357 357 356 355 354 355 355 356 355 354 353 353 353 353
309 303 298 292 291 295 298 302 312 313 320 324 326 323 329 336 338 339 348 352 352 353 354 358 361 361 362 362 363 362 361 361 360 359 358 357 355 355 354 353 354 357 356 353 349 348 348 347 347
304 296 290 287 288 294 298 301 301 302 309 324 329 322 325 335 343 345 348 353 351 353 353 357 361 361 361 362 362 363 362 361 361 360 358 357 355 355 353 352 353 356 354 348 344 344 346 347 348
299 294 288 285 289 296 298 300 300 302 320 326 325 325 327 339 342 344 349 350 353 352 355 357 361 361 360 360 362 362 361 361 361 361 360 358 356 355 353 351 352 354 353 347 344 346 347 348 348
297 291 288 286 292 295 298 301 308 320 323 325 331 325 331 339 341 345 345 348 353 354 355 356 356 359 360 359 360 361 360 360 360 360 359 358 356 355 353 351 351 353 354 349 347 347 347 347 348
297 293 290 287 290 293 299 301 301 318 321 335 335 322 322 334 344 342 343 347 351 354 353 354 355 354 353 354 360 361 360 360 360 359 359 358 356 355 354 351 350 352 354 351 349 348 348 349 349
298 292 287 290 291 296 299 299 302 306 327 325 331 329 329 338 340 337 341 344 348 352 353 353 353 354 353 352 356 359 359 359 359 358 358 355 347 347 347 349 350 352 354 354 351 350 349 350 350
295 289 292 296 296 297 299 297 300 302 306 319 321 325 334 335 335 334 338 339 341 346 350 352 351 351 351 355 351 351 352 351 351 351 351 347 344 344 348 348 352 354 354 355 353 352 352 349 331
292 292 295 298 300 298 299 300 301 299 297 302 317 320 328 329 333 336 338 340 340 345 348 351 350 350 349 350 349 348 347 349 348 348 346 343 345 341 343 343 341 342 346 344 340 335 333 328 323
295 297 296 298 299 296 297 300 301 300 302 306 308 322 327 327 333 335 339 340 341 342 346 349 350 349 350 348 350 347 346 346 345 345 345 342 339 338 338 340 340 339 339 338 337 331 331 329 323
292 297 297 299 298 296 297 299 299 300 304 305 323 325 324 325 328 337 341 343 341 341 343 347 349 348 349 349 349 347 346 346 345 342 342 342 338 337 337 337 338 338 338 336 333 330 331 332 322
295 295 297 296 297 295 295 298 299 302 304 306 323 322 322 323 329 336 340 340 340 341 341 345 347 347 346 346 347 346 346 345 342 340 341 342 339 336 335 336 337 337 337 336 334 329 329 327 320
296 294 295 295 295 296 296 296 296 302 302 303 312 317 324 327 332 334 340 340 340 341 342 342 343 344 342 343 344 343 343 343 342 341 340 340 340 339 338 335 335 337 337 336 334 333 327 321 320
293 290 287 294 297 298 296 291 299 301 299 301 302 301 306 325 332 334 338 340 340 340 339 340 343 341 339 339 342 340 339 340 340 339 339 341 342 341 340 337 335 335 336 334 332 330 324 317 317
290 286 287 292 296 296 294 293 300 302 299 300 301 311 318 328 330 333 336 337 338 335 334 335 338 338 337 337 340 338 337 340 340 339 340 340 341 343 340 339 335 337 338 334 327 324 323 319 319
286 286 288 289 294 295 292 293 298 301 299 300 299 317 325 327 328 332 333 334 332 330 332 333 333 335 335 338 339 340 338 339 341 341 341 342 342 343 341 340 338 335 339 338 333 327 329 325 320
291 289 289 294 298 293 293 293 298 299 297 297 301 315 322 325 325 326 327 330 333 334 332 332 332 334 335 336 339 339 338 339 339 341 343 343 342 342 341 340 338 334 334 336 340 331 329 325 322
293 290 290 294 297 293 295 294 297 298 298 298 307 314 317 317 320 323 328 335 335 337 337 333 334 336 337 337 338 341 341 342 343 344 344 343 342 341 341 341 339 335 335 335 335 332 329 326 321
292 290 291 292 297 296 293 291 294 298 301 306 309 316 317 318 320 331 335 334 335 336 338 338 339 338 340 342 344 339 342 344 343 343 344 344 344 343 342 340 338 336 335 335 336 333 329 326 325
289 297 296 295 292 287 292 287 290 295 299 305 305 310 319 323 333 333 330 330 331 332 334 336 339 343 344 346 344 342 342 335 340 341 344 343 343 342 342 340 337 336 335 333 335 334 330 327 325
295 300 296 296 291 287 288 285 288 299 299 302 306 316 318 325 326 324 323 324 325 326 328 331 334 336 338 340 344 343 339 341 339 342 343 342 342 342 340 340 339 337 336 336 333 335 331 330 328
301 297 294 290 287 284 287 286 286 295 299 302 306 314 318 320 321 322 322 322 322 324 325 328 330 331 334 335 335 336 335 335 335 337 339 342 342 341 342 340 337 337 335 334 336 336 334 331 330
295 290 283 282 282 282 291 287 292 301 302 303 305 308 313 319 320 320 318 318 318 319 321 324 324 323 329 331 333 332 334 334 333 335 338 339 340 341 341 338 336 336 336 336 335 335 335 333 331
292 289 284 279 280 283 291 287 294 303 305 306 307 307 308 308 313 317 320 319 319 319 320 321 320 320 321 321 322 324 326 330 331 332 333 332 333 336 340 341 341 339 337 338 337 336 337 335 334
291 287 292 286 287 283 286 295 302 306 304 304 304 306 306 307 307 308 311 311 311 311 311 312 313 314 316 317 318 318 320 320 319 321 326 331 331 333 334 335 339 342 341 338 338 337 337 336 335
294 297 286 285 277 278 284 286 291 300 300 301 302 303 306 308 309 309 308 307 310 312 311 310 309 309 310 310 310 311 312 314 315 315 316 319 325 327 329 330 332 334 338 338 336 336 337 336 333
292 290 291 288 288 283 280 284 302 301 303 300 302 304 306 307 309 310 310 309 306 306 306 306 307 308 308 309 308 307 308 309 310 312 314 315 316 320 326 327 329 332 336 337 334 334 333 332 332
296 292 290 282 281 288 286 285 302 304 305 305 304 306 308 310 309 311 310 312 308 305 306 306 307 306 306 307 307 306 305 306 306 308 310 314 314 316 322 326 327 329 334 334 336 332 332 331 331
Wind_Speed
4 1 1 4 5 5 4 6 3 3 5 4 2 3 3 3 5 5 2 7 14 16 12 15 18 19 17 17 14 12 12 13 14 16 15 14 13 12 11 10 10 10 9 7 6 7 8 8 9
2 3 4 3 6 2 6 5 8 4 2 10 7 5 3 2 1 4 8 8 19 15 14 13 19 19 18 17 15 13 12 12 12 13 13 12 12 11 10 9 9 9 8 7 6 7 7 7 6
0 4 4 5 4 6 5 4 8 3 9 2 3 3 4 7 2 9 6 15 18 14 12 13 19 20 19 19 17 15 13 12 12 12 12 10 9 9 7 7 7 7 6 6 5 6 7 6 5
3 5 5 5 7 6 6 5 7 6 6 7 2 3 1 2 4 7 15 16 14 14 12 15 19 18 19 20 19 16 15 14 12 12 11 10 9 8 6 6 6 6 5 4 3 4 5 5 3
5 4 4 2 4 6 7 8 8 6 5 6 6 6 3 2 4 15 17 18 17 12 8 13 18 19 18 20 19 18 16 14 13 12 11 9 8 7 6 6 6 5 4 3 1 1 2 2 3
5 4 4 3 4 7 7 8 6 8 8 7 5 7 3 4 10 13 15 17 12 15 11 11 15 15 16 17 17 17 16 15 14 13 11 10 8 6 6 6 6 5 4 3 2 1 1 1 1
7 5 4 2 5 7 5 11 6 2 6 5 6 6 2 6 6 13 14 13 11 10 11 11 9 11 13 13 14 14 13 12 12 11 10 9 8 6 6 5 5 5 4 3 3 3 3 4 3
6 5 2 2 2 7 4 9 8 5 2 3 1 4 5 5 12 11 14 12 12 8 7 9 10 7 5 5 10 11 11 9 8 8 9 9 8 8 6 5 6 6 5 4 4 4 5 6 7
4 5 1 4 2 8 6 8 5 4 4 1 2 2 0 11 16 15 12 10 10 9 8 9 11 10 8 6 6 8 12 12 11 9 9 6 3 5 4 5 7 8 8 5 6 6 6 6 7
6 4 7 7 4 6 9 3 6 5 4 5 4 2 5 12 15 18 15 13 11 12 11 9 8 10 8 7 5 5 4 3 3 4 4 3 3 4 4 5 8 8 9 9 7 7 8 5 4
3 5 5 5 8 4 7 10 2 2 0 4 6 4 6 9 11 12 10 12 13 13 9 12 8 8 8 5 4 3 3 3 3 4 4 4 3 3 3 2 3 3 6 4 5 4 1 3 4
1 5 3 6 2 3 5 5 5 5 8 5 8 5 5 9 13 15 13 14 15 16 14 13 10 10 13 6 6 4 4 3 3 4 6 4 3 4 4 3 4 3 2 4 4 4 6 2 5
3 5 4 5 8 7 2 9 8 6 5 6 2 10 7 8 9 11 13 12 13 15 20 17 14 13 10 9 9 8 7 6 6 5 5 4 4 5 3 4 3 3 1 3 4 4 4 5 2
3 5 6 6 6 4 3 5 7 8 7 6 6 9 10 7 8 11 13 14 16 16 15 14 19 17 14 12 9 7 6 8 5 4 6 6 4 4 4 4 4 4 3 3 4 5 4 4 0
2 6 6 3 2 6 3 8 4 8 2 8 8 8 8 11 9 17 21 20 20 15 13 15 15 13 15 17 13 8 8 6 7 8 7 6 6 6 6 4 4 5 4 5 4 5 1 2 2
5 6 6 6 6 5 4 9 12 12 5 12 10 7 9 9 16 13 17 16 15 13 15 14 13 16 13 11 11 8 6 5 7 6 5 8 8 7 6 4 5 4 4 2 3 3 2 2 3
8 2 4 11 5 3 2 10 14 11 7 13 10 9 9 7 5 11 15 15 14 9 8 10 11 15 13 7 7 7 6 5 6 3 4 7 9 9 8 6 5 5 4 3 2 1 2 2 5
4 4 4 6 7 6 7 10 12 14 10 15 3 6 7 8 9 8 7 8 7 5 4 3 3 6 10 5 5 3 4 5 5 5 5 7 8 9 6 5 6 5 3 3 3 2 2 4 3
3 3 5 13 16 3 10 6 14 11 6 7 7 8 8 9 3 2 4 4 7 6 5 4 3 4 5 3 4 3 3 5 4 5 7 5 7 7 6 7 5 5 5 5 5 4 5 3 1
5 4 10 9 12 4 9 11 7 5 5 4 9 10 9 5 7 5 5 5 4 3 3 7 5 5 3 3 3 3 4 3 1 3 5 7 7 7 9 11 8 6 4 5 6 5 3 2 4
3 4 6 7 11 3 4 8 6 5 10 14 9 3 6 6 8 6 7 6 5 5 5 5 6 7 3 5 5 3 2 1 1 2 3 5 7 8 11 12 7 6 5 6 5 6 7 5 3
2 5 7 6 3 6 3 10 6 8 5 14 13 8 8 6 8 10 8 7 8 7 6 6 7 6 5 6 4 4 3 3 1 3 3 2 4 5 6 2 8 9 5 4 5 5 4 4 5
3 9 7 5 5 3 2 2 6 8 7 14 12 9 10 11 12 10 10 8 7 7 7 9 12 12 8 8 6 6 6 3 2 2 5 2 4 5 4 5 4 5 3 4 4 4 6 4 4
9 8 5 5 2 4 6 3 5 5 7 8 10 11 10 12 11 8 7 7 7 7 9 8 13 12 12 12 11 11 9 6 3 4 4 3 3 4 2 3 5 3 4 4 6 6 5 6 5
12 9 6 6 5 6 6 3 2 6 6 6 6 11 12 10 9 7 6 6 9 10 9 8 12 12 11 9 10 8 10 7 7 5 3 5 3 3 4 3 4 4 6 6 6 3 5 5 4
5 4 5 6 2 6 6 4 4 7 5 7 8 13 16 15 8 8 6 6 10 12 10 11 13 12 10 9 10 8 11 6 4 5 6 5 4 5 7 5 4 6 5 6 6 5 5 5 6
5 2 1 1 3 3 4 2 4 6 4 6 12 16 14 13 15 13 8 9 9 12 11 11 12 12 11 10 8 9 7 8 7 8 6 4 5 5 7 8 8 7 4 6 7 6 8 6 6
3 2 2 4 1 5 5 4 4 10 7 4 11 13 8 12 12 10 11 8 5 6 8 6 12 11 9 10 9 8 9 9 6 5 6 6 5 6 6 5 6 8 7 4 6 6 6 6 4
5 3 6 3 2 2 3 5 7 7 9 8 10 10 8 12 8 5 6 10 4 10 4 4 8 10 9 8 6 8 8 9 10 9 7 7 7 7 6 6 5 6 7 5 5 6 5 6 5
3 2 3 5 4 3 3 7 3 4 4 10 5 8 10 16 7 6 11 12 11 6 5 8 6 8 7 4 5 5 5 6 6 6 8 7 7 8 7 6 6 5 5 6 5 5 5 5 5
Wind_Direction
318 28 112 40 44 62 289 260 237 246 181 175 189 167 267 103 165 212 282 141 131 149 159 163 160 149 149 143 138 127 120 118 118 118 116 117 117 117 117 115 115 116 115 113 105 95 97 106 112
335 107 43 79 88 57 269 270 250 348 282 107 88 104 218 156 231 115 124 164 148 153 157 166 163 151 151 144 139 132 127 122 120 117 118 121 122 121 121 117 117 120 121 120 115 107 105 108 113
108 60 86 100 127 188 225 246 280 124 170 352 146 270 176 163 136 169 146 152 142 153 161 167 165 156 153 146 144 142 137 133 129 125 124 123 119 118 120 119 121 122 121 118 116 108 103 103 105
75 14 29 100 227 255 222 263 261 152 250 216 145 212 303 274 125 157 140 144 147 150 160 174 164 161 156 153 150 151 149 146 143 139 137 138 137 134 134 132 129 131 127 125 122 113 110 107 99
40 57 55 356 277 269 263 246 232 232 216 176 157 201 165 220 130 140 152 150 153 149 156 168 166 164 163 159 157 156 156 154 152 152 151 151 151 151 153 154 152 150 147 153 168 121 96 102 98
44 96 62 250 283 267 278 266 268 198 170 151 165 126 194 136 146 151 147 151 156 148 156 157 168 166 166 167 162 160 161 161 160 159 159 160 164 171 176 179 177 178 183 194 206 263 307 335 11
117 90 204 162 266 300 253 321 18 64 113 225 145 117 230 205 183 144 146 142 140 142 154 149 158 165 169 174 168 163 164 165 165 162 162 165 173 191 207 210 210 208 214 218 234 256 283 296 296
108 92 86 331 255 273 286 358 312 15 226 97 44 172 221 164 165 147 140 130 128 135 150 157 138 134 139 160 174 167 165 165 164 166 172 179 186 197 217 239 255 248 250 248 240 246 263 286 301
121 60 131 237 245 275 291 29 296 266 144 299 228 226 348 111 121 134 129 132 132 143 164 169 160 159 143 142 177 174 177 172 172 180 187 191 212 227 230 254 264 274 272 265 272 266 264 282 298
96 121 214 203 241 285 305 23 340 25 19 310 303 100 106 122 139 151 154 152 147 160 172 175 172 168 155 163 159 153 173 150 166 177 192 196 237 261 253 257 271 274 281 286 279 283 297 319 296
150 187 214 233 247 250 281 310 194 175 295 265 263 226 157 133 157 154 147 156 159 157 174 188 174 161 162 169 151 151 157 161 172 194 197 208 227 250 260 262 281 297 285 296 313 312 102 350 309
312 244 216 277 300 326 268 283 276 207 209 210 254 131 163 166 159 166 159 159 164 168 174 183 189 180 172 150 168 163 170 169 186 200 194 189 228 244 248 250 253 256 275 287 297 311 318 100 334
199 279 295 273 287 240 266 248 236 250 228 236 239 135 206 175 149 173 166 162 164 186 174 181 178 184 182 178 168 172 186 186 187 196 207 193 208 246 251 247 247 253 219 257 270 275 294 318 359
217 264 283 279 281 255 228 266 137 266 268 170 170 229 172 164 165 149 164 168 178 186 194 184 186 183 177 166 180 191 195 185 182 190 202 200 195 241 253 264 257 252 215 228 237 245 256 274 288
280 337 343 322 26 305 280 335 251 243 295 271 203 225 230 152 168 180 182 180 182 196 180 187 191 191 188 188 172 177 192 191 190 204 205 192 185 206 245 247 262 254 232 236 236 252 296 293 314
16 49 10 291 329 308 88 276 280 276 247 251 246 199 245 167 187 194 188 187 191 180 188 181 184 192 202 210 172 177 164 185 203 200 193 197 203 196 215 226 239 240 244 212 219 211 223 247 259
6 283 321 324 300 339 29 291 284 291 239 250 246 162 183 158 197 199 194 186 181 174 171 171 188 191 186 180 175 156 158 192 205 197 206 191 215 206 204 220 229 230 216 195 165 163 136 193 243
288 334 301 272 280 340 306 266 289 289 242 232 172 155 166 167 201 204 181 140 125 118 122 186 212 175 180 177 135 120 174 181 206 209 207 213 222 209 203 231 217 195 207 170 152 174 179 232 217
245 236 256 277 281 260 273 276 287 308 297 239 173 166 190 175 163 133 112 97 110 120 144 203 204 232 158 139 129 134 187 211 200 200 224 232 224 209 177 227 230 192 187 188 175 163 199 251 126
230 260 279 283 274 149 287 287 284 301 303 265 169 161 177 152 132 135 119 103 101 119 145 183 197 221 190 145 145 139 147 212 172 185 250 219 209 186 204 218 222 193 180 194 184 175 163 216 171
267 215 264 250 305 253 267 304 330 343 32 19 2 13 135 155 126 107 91 76 74 93 103 132 178 191 168 163 130 79 67 95 145 130 220 234 218 208 208 212 209 219 189 197 192 175 174 191 192
299 294 264 265 351 288 120 285 308 350 353 12 358 12 11 29 104 101 68 49 41 22 47 84 75 113 141 150 123 124 140 188 248 225 241 279 259 255 240 281 216 219 196 202 222 176 176 147 186
269 315 284 259 244 302 65 63 254 352 333 354 332 56 45 58 61 45 71 59 43 22 23 41 61 51 46 78 91 124 95 93 54 35 37 25 262 236 109 231 279 263 222 209 246 217 190 182 168
303 341 8 25 90 271 336 189 272 346 332 331 342 51 59 79 61 48 10 42 56 34 26 39 64 55 50 47 45 68 70 57 66 24 27 3 335 309 143 221 240 257 263 210 221 253 214 192 199
7 34 347 330 356 245 333 17 286 354 354 347 339 49 49 57 61 44 10 41 57 56 52 62 64 51 44 46 63 58 65 52 29 32 9 360 343 356 353 279 253 243 219 227 230 217 223 220 212
283 134 163 274 270 272 340 320 342 89 70 56 50 69 55 56 36 41 18 21 49 52 44 51 53 54 45 44 41 37 48 47 41 21 18 358 359 337 329 326 281 242 229 221 207 218 232 202 214
307 51 204 137 314 351 237 138 202 160 114 85 71 66 60 51 40 33 45 63 56 64 56 55 50 52 45 43 42 40 44 38 28 17 8 351 339 328 342 334 322 324 239 219 215 222 228 203 214
57 115 19 12 316 288 304 286 296 181 161 138 75 71 57 56 36 17 29 2 23 50 74 76 75 67 57 46 36 32 29 26 24 26 6 342 328 338 333 337 335 329 323 249 213 229 239 198 210
350 20 54 98 161 230 293 271 6 289 169 195 124 100 82 51 20 349 15 17 9 34 24 64 67 61 55 57 40 40 16 14 15 10 353 343 332 337 340 339 335 331 326 319 243 242 227 216 198
94 134 125 121 251 257 292 261 159 101 188 254 194 160 166 121 280 319 38 7 344 82 332 20 45 57 54 67 61 48 31 20 25 7 353 338 326 322 329 332 335 340 341 339 307 277 277 251 230